Regional Weather Roundup
Issued by NWS

Home | Current Version | Previous Version | Graphics & Text | Print | Product List | Glossary Off
Versions: 1 2 3 4 5 6 7 8 9 10 11 12 13 14 15 16 17 18 19 20 21 22 23 24 25 26 27 28 29 30 31 32 33 34 35 36 37 38 39 40 41 42 43 44 45 46 47 48 49 50

000
ASUS45 KBOU 072107
RWRCO

WEATHER ROUNDUP FOR COLORADO
NATIONAL WEATHER SERVICE DENVER/BOULDER CO
200 PM MST SUN FEB 07 2016

NOTE: "FAIR" INDICATES FEW OR NO CLOUDS BELOW 12000 FEET WITH NO
SIGNIFICANT WEATHER AND/OR OBSTRUCTIONS TO VISIBILITY.

COZ001>005-013-030-031-072200-
...NORTHWEST COLORADO...

CITY           SKY/WX    TMP DP  RH WIND       PRES   REMARKS
CRAIG          CLOUDY    22  12  65 CALM      30.47F
HAYDEN         CLOUDY    25  12  58 CALM      30.46S
MEEKER         SUNNY     32  18  56 CALM      30.46F
MOUNT WERNER   NOT AVBL
STEAMBOAT SPGS CLOUDY    31  17  56 NW5       30.43F WCI  26
WALDEN         SUNNY     30  18  59 CALM      30.34F
$$

COZ006>008-011-072200-
...WEST CENTRAL VALLEYS...

CITY           SKY/WX    TMP DP  RH WIND       PRES   REMARKS
GRAND JUNCTION SUNNY     30  19  63 NE5       30.50F WCI  25
MONTROSE       SUNNY     34  17  50 CALM      30.49F
EAGLE          SUNNY     36  18  48 CALM      30.43F
RIFLE          SUNNY     33  15  47 CALM      30.48F
DELTA          SUNNY     36  20  52 CALM      30.50S
NUCLA          NOT AVBL
$$

COZ017>023-064>068-072200-
...SOUTHWEST COLORADO...

CITY           SKY/WX    TMP DP  RH WIND       PRES   REMARKS
DURANGO        SUNNY     32  17  54 NE7       30.36F WCI  26
CORTEZ         SUNNY     42  24  49 W16       30.36F
PAGOSA SPRINGS SUNNY     37  16  43 SW3       30.34F
TELLURIDE      SUNNY     38  12  34 W10       30.42S
WOLF CREEK PAS SUNNY     32   5  32 N5        30.42F WCI  27
$$

COZ009-010-012-014-032>034-037-058>063-072200-
...CENTRAL COLORADO...

CITY           SKY/WX    TMP DP  RH WIND       PRES   REMARKS
ASPEN          SUNNY     37  17  44 N10       30.42R
BUENA VISTA    CLOUDY    41  11  28 NW12G21   30.28R
COPPER MTN     CLOUDY    23   9  54 W30G38    30.33F HAZE    WCI   5
BERTHOUD PASS  CLOUDY    10   0  61 W47G58    30.24F HAZE    WCI -16
COTTONWOOD PAS LGT SNOW  36   3  25 W32G64    30.22S
GUNNISON       CLOUDY     7   0  72 SE3       30.50S
KREMMLING      CLOUDY    34  12  40 NW7G20    30.41S WCI  28
LEADVILLE      CLOUDY    29  10  45 NW20G32   30.35F WCI  16
MONARCH PASS   CLOUDY    19  12  73 MISG      30.45S
SALIDA         NOT AVBL
SUNLIGHT       SUNNY     28  19  69 W5        30.48S WCI  23
WILKERSON PASS CLOUDY    28  10  47 W10G18    30.32F WCI  19
$$

COZ069>075-072200-
...SAN LUIS VALLEY/SANGRE DE CRISTO MOUNTAINS...

CITY           SKY/WX    TMP DP  RH WIND       PRES   REMARKS
ALAMOSA        CLOUDY    40  13  33 S3        30.31F
LA VETA PASS   CLOUDY    37  14  38 S5        30.32S
SAGUACHE       CLOUDY    43  18  36 N7        30.33S
$$

COZ035-036-038>040-072200-
...NORTHERN COLORADO FRONT RANGE...

CITY           SKY/WX    TMP DP  RH WIND       PRES   REMARKS
DENVER INTL AP PTSUNNY   29  21  72 E10       30.29F WCI  20
DMNS CITY PARK   N/A     35  19  53 E13G21    30.27F WCI  26
AURORA         PTSUNNY   30  21  70 E9        30.28F WCI  21
FRONT RANGE AP PTSUNNY   28  21  74 E12       30.30F WCI  18
ERIE MUNI ARPT SUNNY     34  22  63 SE12      30.29F WCI  25
BOULDER MUN AP SUNNY     36  23  60 SE7       30.28S
CENTENNIAL     MOSUNNY   29  20  69 E10       30.26F WCI  20
BROOMFIELD     MOSUNNY   34  23  64 E12       30.27F WCI  25
FORT COLLINS   CLOUDY    30  21  69 S17       30.29S WCI  18
LONGMONT       CLOUDY    38  23  55 SE9       30.30F
$$

COZ041-046-047-076>085-087-088-072200-
...PIKES PEAK/PALMER DIVIDE AND SOUTHERN FOOTHILLS...

CITY           SKY/WX    TMP DP  RH WIND       PRES   REMARKS
COLO. SPRINGS  MOSUNNY   31  20  63 E9        30.27F WCI  23
A. F. ACADEMY  SUNNY     35  20  55 S7        30.24F WCI  29
SCHRIEVER AFB  FAIR      27  20  74 N9        30.28F WCI  18
ELLICOTT       NOT AVBL
FALCON         SUNNY     29  19  67 NE5       30.27S WCI  24
FORT CARSON    SUNNY     32  21  64 SE7       30.27F WCI  26
LIMON          CLOUDY    27  19  72 N14       30.30F WCI  16
MONUMENT HILL  SUNNY     25  19  80 E5        30.25F WCI  19
TRINIDAD       SUNNY     47  21  35 NE15G24   30.25R
$$

COZ042>045-048>051-090-091-072200-
...NORTHEAST COLORADO...

CITY           SKY/WX    TMP DP  RH WIND       PRES   REMARKS
GREELEY ARPT   SUNNY     34  25  69 SW16      30.27F WCI  23
AKRON          CLOUDY    30  19  63 NW21      30.29S WCI  17
BURLINGTON     SUNNY     34  18  52 NW22G30   30.29F WCI  22
WRAY           PTSUNNY   37  20  51 NW25G37   30.26S
STERLING       CLOUDY    34  23  64 N30G37    30.26S WCI  20
HOLYOKE        SUNNY     37  23  56 NW21G29   30.26S
FORT MORGAN    CLOUDY    32  20  62 N22       30.32S WCI  19
$$

COZ086-089-092>099-072200-
...SOUTHEAST COLORADO...

CITY           SKY/WX    TMP DP  RH WIND       PRES   REMARKS
PUEBLO         SUNNY     38  22  52 E14       30.31F
LA JUNTA       SUNNY     38  23  55 NE18      30.33F
LAMAR          SUNNY     43  20  39 N15       30.31F
SPRINGFIELD      N/A     41  20  43 N23G30    30.28S
$$



USA.gov is the U.S. government's official web portal to all federal, state and local government web resources and services.